AirNav   Air Wisconsin pilot careers
 
 301 users online  

KMCZ Martin County Airport
Williamston, North Carolina, USA

GOING TO WILLIAMSTON?


FAA INFORMATION EFFECTIVE 01 FEBRUARY 2018

Location

FAA Identifier: MCZ
Lat/Long: 35-51-43.8950N / 077-10-41.5300W
35-51.731583N / 077-10.692167W
35.8621931 / -77.1782028
(estimated)
Elevation: 74.8 ft. / 22.8 m (surveyed)
Variation: 09W (1990)
From city: 6 miles W of WILLIAMSTON, NC
Time zone: UTC -5 (UTC -4 during Daylight Saving Time)
Zip code: 27892

Airport Operations

Airport use: Open to the public
Control tower: no
ARTCC: WASHINGTON CENTER
FSS: RALEIGH FLIGHT SERVICE STATION
NOTAMs facility: RDU (NOTAM-D service available)
Attendance: 0800-1700
FOR SVC AFT HRS CALL 252-799-8718 OR 252-217-4023.
Wind indicator: lighted
Segmented circle: yes
Lights: PAPI 3, 21 OPR CONT. MIRL RY 03/21 DUSK TO DAWN; TO CHANGE INTENSITY OF MIRL RY 03/21 - CTAF.
Beacon: white-green (lighted land airport)
Operates sunset to sunrise.

Airport Communications

CTAF/UNICOM: 122.8
WX AWOS-3 at PGV (17 nm SW): 128.425 (252-758-6485)
WX AWOS-3P at ETC (18 nm W): 119.575 (252-641-1640)
WX AWOS-3 at OCW (19 nm S): 120.175 (252-975-6133)
  • APCH/DEP SVC PRVDD BY WASHINGTON ARTCC ON FREQS 135.5/281.425 (NEW BERN RCAG).

Nearby radio navigation aids

VOR radial/distance  VOR name  Freq  Var
TYIr110/26.4TAR RIVER VORTAC117.8005W
CVIr215/34.1COFIELD VORTAC114.6009W
ISOr037/34.8KINSTON VORTAC109.6005W

 
NDB name  Hdg/Dist  Freq  Var  ID
ALWOOD054/13.323009WAQE .- --.- .
CHOCOWINITY359/21.438808WRNW .-. -. .--

Airport Services

Fuel available: 100LL JET-A1
100LL AND JET-A HAS 24 HR SELF-SVC WITH CC.
Parking: hangars and tiedowns
Airframe service: NONE
Powerplant service: NONE
Bottled oxygen: NONE
Bulk oxygen: NONE

Runway Information

Runway 3/21

Dimensions: 5000 x 75 ft. / 1524 x 23 m
Surface: asphalt, in good condition
Weight bearing capacity: 
Single wheel: 21.0
Runway edge lights: medium intensity
RUNWAY 3  RUNWAY 21
Latitude: 35-51.354402N35-52.108727N
Longitude: 077-10.895800W077-10.488250W
Elevation: 64.7 ft.74.4 ft.
Gradient: 0.3%0.3%
Traffic pattern: leftleft
Runway heading: 033 magnetic, 024 true213 magnetic, 204 true
Markings: nonprecision, in good conditionnonprecision, in good condition
Visual slope indicator: 2-light PAPI on left (3.00 degrees glide path)2-light PAPI on left (3.00 degrees glide path)
Touchdown point: yes, no lightsyes, no lights
Obstructions: 16 ft. road, 426 ft. from runway, 269 ft. right of centerline, 14:1 slope to clear15 ft. road, 587 ft. from runway, 242 ft. left of centerline, 25:1 slope to clear

Airport Ownership and Management from official FAA records

Ownership: Publicly-owned
Owner: COUNTY OF MARTIN
305 E. MAIN STREET, PO BOX 668
WILLIAMSTON, NC 27892
Phone 252-789-4300
Manager: JESSE COUNCIL, JULIET CHARLIE AVIAT
2135 AIRPORT RD
WILLIAMSTON, NC 27892
Phone 252-792-1971

Airport Operational Statistics

Aircraft based on the field: 12
Single engine airplanes: 9
Jet airplanes: 1
Helicopters: 1
Ultralights: 1
    
Aircraft operations: avg 34/day *
56% local general aviation
40% transient general aviation
4% military
* for 12-month period ending 19 June 2015

Additional Remarks

DEER ON AND INVOF ARPT.

Instrument Procedures

NOTE: All procedures below are presented as PDF files. If you need a reader for these files, you should download the free Adobe Reader.

NOT FOR NAVIGATION. Please procure official charts for flight.
FAA instrument procedures published for use between 1 February 2018 at 0901Z and 1 March 2018 at 0900Z.

 
IAPs - Instrument Approach Procedures
RNAV (GPS) RWY 03 **CHANGED**   download (223KB)
RNAV (GPS) RWY 21 **CHANGED**   download (209KB)
NOTE: Special Take-Off Minimums/Departure Procedures apply   download (141KB)

Other nearby airports with instrument procedures:

KPGV - Pitt-Greenville Airport (17 nm SW)
KETC - Tarboro-Edgecombe Airport (18 nm W)
KOCW - Washington-Warren Airport (19 nm S)
KPMZ - Plymouth Municipal Airport (21 nm E)
KASJ - Tri-County Airport (26 nm N)
 
Loc | Ops | Rwys | IFR | FBO | Links
Com | Nav | Svcs | Stats | Notes

AirNav Hotels Sweepstakes
 
Area around KMCZ (Martin County Airport)
 
Road maps at: MapQuest Bing Google
 
Aerial photo
WARNING: Photo may not be current or correct
Aerial photo of KMCZ (Martin County Airport)
Photo by David Newcomer
Photo taken 14-Mar-2012
from 5,500' altitude looking north.

Do you have a better or more recent aerial photo of Martin County Airport that you would like to share? If so, please send us your photo.

 
Sectional chart

 
Airport distance calculator
Flying to Martin County Airport? Find the distance to fly.

From to KMCZ

Sunrise and sunset
Times for 19-Feb-2018
 Local
(UTC-5)
 Zulu
(UTC)
Morning civil twilight06:2611:26
Sunrise06:5211:52
Sunset17:5322:53
Evening civil twilight18:1923:19

Current date and time
Zulu (UTC)  19-Feb-2018 10:19:08
Local (UTC-5)  19-Feb-2018 05:19:08
 
METAR
KPGV 
18nm SW 
191005Z AUTO 04004KT 7SM DZ SCT006 BKN011 OVC029 07/04 A3045 RMK AO2
KOCW 
19nm S 
190955Z AUTO 08008KT 10SM OVC034 08/04 A3045 RMK AO2 T00770040
KASJ 
25nm N 
190955Z AUTO 09003KT 10SM -RA OVC032 06/03 A3046 RMK AO2 T00550029
KEDE 
31nm E 
190955Z AUTO 09007KT 10SM OVC041 09/06 A3046 RMK AO2 T00910060
KRWI 
35nm W 
191002Z AUTO 05004KT 3SM -RA BR OVC029 05/04 A3045 RMK AO2 P0000 T00500039
KIXA 
36nm NW 
190955Z AUTO 00000KT 10SM SCT032 BKN043 OVC075 05/03 A3045 RMK AO2
TAF
KPGV 
18nm SW 
190533Z 1906/2006 VRB04KT P6SM OVC045 FM191000 00000KT P6SM VCSH OVC025 FM191300 18004KT P6SM SCT008 OVC015 FM200200 VRB04KT 3SM BR OVC008 AMD LTD TO CLD VIS AND WIND
NOTAMs
Click for the latest NOTAMs
NOTAMs are issued by the DoD/FAA and will open in a separate window not controlled by AirNav.

 

 
 

FBO, Fuel Providers, and Aircraft Ground Support

  
 Business Name 
 
 Contact 
 
 Services / Description 
 
Fuel Prices
 
Comments
  
 Juliet Charlie Aviation
252-792-1971
252-799-8718
[email]
Aviation fuel, Aircraft parking (ramp or tiedown), Hangars, Pilots lounge / snooze room, Internet access

More info about Juliet Charlie Aviation
Shell
100LL Jet A
AS --- $3.55 
SS $3.85 --- 
 Updated 24-Jan-2018
 
   4 read write
AS=Assisted/Self Service
SS=Self service
Update Fuel Prices
 

Would you like to see your business listed on this page?

 If your business provides an interesting product or service to pilots, flight crews, aircraft, or users of the Martin County Airport, you should consider listing it here.  To start the listing process, click on the button below
 
Add a business
 

Other Pages about Martin County Airport

Update a link
 
Copyright © AirNav, LLC. All rights reserved. Privacy Policy  Contact